Location: Mason-Dixon Star Party
(40.0361°N, 76.9958°W)
Time: 09:28:10
(UTC-05:00)

Daily predictions for brighter satellites

Satellite Brightness Start Highest point End
(mag) Time Altitude Azimuth Time Altitude Azimuth Time Altitude Azimuth
PAYLOAD A 3.9 17:05:56 10° SSE 17:10:40 68° ENE 17:15:37 10° N
Cosmos 1536 Rocket 4.4 17:15:38 10° SSE 17:19:30 30° E 17:23:23 10° NNE
Tiangong 1 3.1 17:21:01 10° S 17:23:04 17° SE 17:25:05 10° ESE
USA 234 3.5 17:17:43 10° NE 17:24:12 70° NW 17:30:41 10° WSW
SPOT 3 Rocket 3.5 17:19:38 10° SSE 17:24:45 64° ENE 17:29:53 10° N
Okean 1 4.2 17:23:06 10° SSE 17:26:36 29° E 17:30:08 10° NNE
Meteor 1-18 Rocket 4.5 17:22:11 10° SSE 17:27:34 50° E 17:33:06 10° NNE
YAOGAN 1 2.6 17:23:32 10° SSE 17:27:46 58° ENE 17:32:02 10° N
Cosmos 1536 3.9 17:24:38 10° NNW 17:28:35 50° W 17:32:31 10° S
Cosmos 1844 Rocket 2.9 17:24:52 10° SSW 17:30:27 78° WNW 17:36:06 10° NNE
Cosmos 1812 3.0 17:27:14 10° SSE 17:30:55 45° E 17:34:38 10° NNE
BREEZE M DEB (TANK) 4.1 17:20:59 10° SW 17:32:18 44° SSE 17:35:33 13° ENE
COSMOS 2487 4.0 17:34:05 10° NNE 17:36:32 17° ENE 17:38:36 11° E
EP 2 4.4 17:34:00 10° SSW 17:36:33 54° ESE 17:38:30 16° NE
AQUARIUS 4.1 17:32:29 10° SSE 17:36:58 81° ENE 17:41:29 10° N
USA 32 4.0 17:32:17 10° S 17:37:30 84° E 17:42:45 10° N
NOSS 3-3 (A) 4.2 17:31:44 10° SSW 17:37:41 55° ESE 17:44:01 10° NE
NOSS 3-3 (C) 4.2 17:31:51 10° SSW 17:37:48 54° ESE 17:44:05 10° NE
Meteor 2-19 Rocket 4.4 17:32:32 10° N 17:38:37 81° E 17:44:39 10° S
ISS -1.8 17:36:44 10° W 17:39:38 28° NNW 17:42:12 12° NNE
SL-8 Rocket 4.0 17:33:59 10° N 17:40:11 89° W 17:46:20 10° S
Cosmos 1346 Rocket 3.7 17:39:13 10° SSE 17:42:35 28° E 17:45:20 13° NE
IDEFIX/ARIANE 42P 2.6 17:40:04 10° SSE 17:45:17 87° WSW 17:50:30 10° NNW
CORIOLIS 4.1 17:40:18 10° SSE 17:45:43 85° ENE 17:51:09 10° NNW
ASTRO F (AKARI) 4.2 17:44:02 10° NNE 17:47:09 62° ESE 17:50:16 10° S
ATLAS 2AS CENTAUR R/B 3.0 17:39:02 10° NNW 17:47:11 83° NE 17:54:42 10° SE
Cosmos 1844 3.8 17:41:39 10° SSW 17:47:12 76° WNW 17:52:48 10° NNE
Cosmos 494 Rocket 3.9 17:42:09 10° NNW 17:47:24 70° ENE 17:52:38 10° SSE
Cosmos 1455 Rocket 3.0 17:44:52 10° N 17:49:17 77° E 17:53:42 10° SSE
Cosmos 2297 4.5 17:44:41 10° SSE 17:49:35 31° ESE 17:53:05 17° NE
SKYMED 2 4.0 17:46:03 10° NNE 17:50:10 40° E 17:54:14 10° S
Cosmos 2366 rocket 4.0 17:45:03 10° N 17:51:27 83° E 17:57:45 10° S
CZ-3B DEB 2.3 17:51:05 10° WSW 17:54:38 70° NW 18:02:17 14° NE
Cosmos 2218 Rocket 4.1 17:49:46 10° N 17:56:05 81° W 18:02:16 10° S
MSX 3.8 17:52:13 10° SSE 17:57:58 82° ENE 18:03:45 10° NNW
Thor Agena Rocket 4.2 17:57:07 10° N 18:02:13 56° WNW 18:07:20 10° SSW
CZ-4 R/B 3.1 17:58:25 10° SSW 18:02:18 37° W 18:06:11 10° NNW
Cosmos 1809 Rocket 4.5 17:56:49 10° N 18:02:52 56° E 18:08:51 10° SSE
SMAP 3.9 17:58:39 10° S 18:03:11 53° W 18:07:45 10° NNW
Abrixas 4.2 18:01:20 10° NW 18:03:36 20° NNE 18:03:36 20° NNE
Cosmos 2278 Rocket 2.2 17:58:01 10° SSW 18:03:41 89° ESE 18:09:21 10° NNE
SL-24 DEB 4.2 18:00:15 10° N 18:05:01 79° E 18:09:43 10° S
Cosmos 1238 Rocket 3.4 18:04:15 10° SSW 18:07:02 40° W 18:09:55 10° N
OTV 4 3.3 18:06:12 10° WSW 18:07:56 14° SSW 18:09:40 10° S
BREEZE-M R/B 4.3 17:57:28 10° WSW 18:08:56 83° NNW 18:12:20 25° NE
CZ-2C R/B 3.5 18:04:41 10° S 18:09:27 48° W 18:14:24 10° NNW
Timation 2 Rocket 4.4 18:03:45 10° NNW 18:10:20 48° ENE 18:16:56 10° SE
Cosmos 1975 2.8 18:07:32 10° N 18:11:39 90° S 18:15:40 10° S
MONITOR-E 4.5 18:09:11 10° S 18:12:21 71° W 18:15:33 10° NNW
Meteor 1-12 Rocket 4.4 18:06:41 10° NNW 18:12:29 79° W 18:18:21 10° S
Cosmos 2251 Rocket 4.2 18:08:46 10° NNW 18:14:02 58° WSW 18:19:12 10° S
Genesis I 3.1 18:18:30 10° NNW 18:22:24 59° NE 18:23:18 45° ESE
NOAA 12 4.2 18:20:08 10° SSE 18:25:15 52° ENE 18:30:22 10° N
OE (NEXTSAT) 4.3 18:22:18 10° WSW 18:25:52 88° NNW 18:26:20 66° ENE
Cosmos 1821 Rocket 4.1 18:20:24 10° N 18:26:16 47° ENE 18:32:05 10° SSE
Cosmos 1484 Rocket 3.1 18:24:49 10° S 18:28:33 61° W 18:32:15 10° NNW
TIMED 4.4 18:24:29 10° S 18:28:48 67° ESE 18:30:00 44° NE
SL-8 R/B 4.0 18:24:30 10° WSW 18:29:13 60° NNW 18:30:50 38° NE
Cosmos 2082 Rocket 2.3 18:24:18 10° NNW 18:29:50 53° ENE 18:33:42 20° SE
DMSP B5D1-3 4.4 18:25:25 12° NNE 18:30:19 81° ESE 18:35:27 10° SSW
Meteor 1-13 Rocket 4.1 18:25:36 10° S 18:31:13 77° E 18:37:01 10° NNE
Cosmos 1833 Rocket 2.9 18:26:00 10° NNW 18:31:27 46° ENE 18:33:05 36° ESE
Meteor 2-21 4.4 18:26:50 10° N 18:33:03 85° W 18:39:11 10° S
METEOR-M 4.2 18:28:13 10° SSE 18:33:22 53° ENE 18:38:33 10° N
NOSS 2-1 (D) 3.7 18:30:14 10° SSW 18:33:30 45° SE 18:33:30 45° SE
NOSS 2-1 (C) 3.7 18:30:56 10° SSW 18:34:09 44° SE 18:34:09 44° SE
COSMO-SKYMED 1 3.2 18:34:04 11° N 18:38:12 56° WNW 18:42:27 10° SSW
Cosmos 1500 4.3 18:38:04 10° NNW 18:41:44 45° W 18:45:24 10° SSW
Meteor 1-23 Rocket 4.4 18:37:50 10° SSE 18:43:19 48° E 18:43:21 48° E
Meteor 1-28 Rocket 3.3 18:45:29 66° NNW 18:45:53 75° WNW 18:49:40 10° SSW
Nadezhda 3 Rocket 4.2 18:42:06 10° SSW 18:48:16 72° W 18:54:32 10° N
NOSS 2-1 (E) 4.0 18:49:20 10° SSW 18:52:08 46° S 18:52:08 46° S
Timation 1 Rocket 4.2 18:47:26 10° SSW 18:53:24 87° ESE 18:55:27 44° NNE
GEOS 3 Rocket 3.7 18:53:31 24° SSE 18:56:41 75° SW 19:01:49 10° NW
Meteor 2-4 Rocket 3.4 18:52:47 10° S 18:58:09 75° E 18:58:30 72° ENE
Tiangong 1 3.4 18:55:55 10° WSW 18:57:11 23° WSW 18:57:11 23° WSW
Cosmos 2056 Rocket 4.3 18:57:13 10° S 19:00:49 40° SSE 19:00:49 40° SSE
Cosmos 1025 Rocket 3.9 19:04:29 10° SSW 19:07:27 43° SSW 19:07:27 43° SSW
ATLAS 3B CENTAUR R/B 3.9 18:57:51 10° WSW 19:13:01 40° SSW 19:15:58 30° SSE
Cosmos 921 Rocket 4.0 19:10:40 10° SW 19:14:34 43° WNW 19:14:34 43° WNW
Cosmos 1371 Rocket 4.2 19:15:21 10° SSW 19:20:09 68° WSW 19:20:09 68° WSW
BREEZE M DEB (TANK) 3.9 19:16:56 10° NW 19:21:24 67° NNE 19:21:54 65° NE
NOSS 3-4 (A) 3.9 19:15:53 10° NNW 19:22:00 59° NNE 19:22:00 59° NNE
NOSS 3-4 (C) 3.9 19:15:59 10° NNW 19:22:02 58° NNE 19:22:02 58° NNE
Cosmos 2082 Rocket 4.4 20:09:22 10° NW 20:13:28 21° W 20:15:50 16° SW
